Погода в Вине

Вьетнам     18°40′24″N   105°40′56″E
темп.,
°C
ветер,
м/с
пор.,
м/с
влажн.,
%
обл.,
%
осадки,
мм/ч
давл.,
гПа
погр.,
м
10 мая, пн
пн1001:00+26з239223 0.0 100595
04:00+26юз11895 0.0 100557
07:00+27ююз11835 0.0 1007135
10:00+30вюв22705 0.0 1007405
13:00+30в44715 0.0 1005378
16:00+29вюв56793 0.0 1002268
19:00+28юв58860 0.0 1003174
22:00+28ю34830 0.0 100555
11 мая, вт
вт1101:00+27ююз11803 0.0 100318
04:00+27ю11770 0.0 100316
07:00+28ююз23710 0.0 100589
10:00+32ююз24600 0.0 1006382
13:00+34вюв46565 0.0 10031094
16:00+30вюв687762 0.0 1001236
19:00+29юв56810 0.0 100265
22:00+28ююв45782 0.0 100466
12 мая, ср
ср1201:00+28ююз23779 0.0 100334
04:00+28ююв127435 0.0 100316
07:00+29ююз22725 0.1 100572
10:00+32ю13625 0.0 1005341
13:00+33вюв456019 0.0 1003517
16:00+31вюв567212 0.0 1001247
19:00+29юв56841 0.0 100188
22:00+29ю337530 0.0 100328
13 мая, чт
чт1301:00+28зсз22783 0.0 100321
04:00+28в11825 0.0 100213
07:00+28з117987 0.0 100576
10:00+32вюв22635 0.0 1005433
13:00+31в54700 0.0 1002467
16:00+30вюв677929 0.0 1001240
19:00+28юв69860 0.0 1002167
22:00+28ююв44820 0.0 100368
14 мая, пт
пт1401:00+27ююв45863 0.0 1002114
04:00+27ююв22843 0.0 100350
07:00+28ююв22810 0.0 1004123
10:00+31вюв22705 0.0 1005435
13:00+30вюв55787 0.0 1003342
16:00+30вюв777947 0.0 1001274
19:00+29юв914843 0.0 1001259
22:00+28юв23800 0.0 100462